Location: �perlecques
(50.8057°N, 2.1521°E)
Time: 10:01:41
(UTC+00:00)

Explorer 11/Cluster Stage 4 - All Passes

Search period start: 31 July 2021 00:00
Search period end: 10 August 2021 00:00
Orbit: 467 x 1257 km, 28.8° (Epoch: 30 July)

Date Brightness Start Highest point End Pass type
(mag) Time Alt. Az. Time Alt. Az. Time Alt. Az.
31 Jul - 10:07:46 10° SSW 10:10:48 12° S 10:13:47 10° SSE daylight
31 Jul - 11:55:27 10° SSW 11:58:20 12° S 12:01:07 10° SSE daylight
01 Aug - 09:55:55 10° SSW 09:59:19 13° S 10:02:41 10° SSE daylight
01 Aug - 11:43:55 10° SSW 11:46:52 12° S 11:49:43 10° SSE daylight
02 Aug - 09:44:13 10° SSW 09:47:50 14° S 09:51:27 10° SSE daylight
02 Aug - 11:32:31 10° SSW 11:35:23 12° SSW 11:38:11 10° S daylight
03 Aug - 09:32:37 10° SSW 09:36:20 14° S 09:40:05 10° SSE daylight
03 Aug - 11:21:15 10° SSW 11:23:54 12° SSW 11:26:30 10° S daylight
04 Aug - 09:21:07 10° SSW 09:24:51 14° S 09:28:38 10° SSE daylight
04 Aug - 11:10:09 10° SSW 11:12:24 11° SSW 11:14:38 10° S daylight
05 Aug - 07:25:08 10° SSE 07:25:54 10° SSE 07:26:41 10° SSE daylight
05 Aug - 09:09:43 10° SSW 09:13:22 14° S 09:17:05 10° SSE daylight
05 Aug - 10:59:23 10° SSW 11:00:54 11° SSW 11:02:25 10° S daylight
06 Aug - 07:13:13 10° S 07:14:26 10° SSE 07:15:40 10° SSE daylight
06 Aug - 08:58:27 10° SSW 09:01:53 13° S 09:05:25 10° SSE daylight
07 Aug - 07:01:40 10° S 07:02:58 10° SSE 07:04:17 10° SSE daylight
07 Aug - 08:47:17 10° SSW 08:50:25 13° S 08:53:39 10° SSE daylight
08 Aug - 06:50:23 10° S 06:51:32 10° SSE 06:52:41 10° SSE daylight
08 Aug - 08:36:16 10° SSW 08:38:57 12° S 08:41:44 10° SSE daylight
09 Aug - 06:39:29 10° S 06:40:07 10° S 06:40:44 10° SSE daylight
09 Aug - 08:25:29 10° SSW 08:27:31 11° S 08:29:36 10° S daylight
